Regional Weather Roundup
Issued by NWS

Home | Current Version | Previous Version | Graphics & Text | Print | Product List | Glossary On
Versions: 1 2 3 4 5 6 7 8 9 10 11 12 13 14 15 16 17 18 19 20 21 22 23 24 25 26 27 28 29 30 31 32 33 34 35 36 37 38 39 40 41 42 43 44 45 46 47 48 49 50
000
ASUS45 KABQ 282210
RWRNM
WEATHER ROUNDUP FOR NEW MEXICO
NATIONAL WEATHER SERVICE ALBUQUERQUE NM
400 PM MDT THU AUG 28 2014

NOTE: "FAIR" MEANS FEW OR NO CLOUDS BELOW 12,000 FEET AGL WITH NO
       SIGNIFICANT WEATHER OR OBSTRUCTIONS TO VISION.

      THIS PRODUCT IS RELEASED AS TWO VERSIONS.  ONE VERSION NEAR
      THE TOP OF THE HOUR CONTAINING PRELIMINARY DATA FROM ALBUQUERQUE
      AND OTHER STATIONS.  A FINAL VERSION WITH ADDITIONAL DATA IS
      ISSUED ABOUT 10 MINUTES AFTER THE HOUR.

NMZ501-503-504-510>518-282300-
NORTHWEST PLATEAU/NORTHCENTRAL MOUNTAINS

CITY           SKY/WX    TMP DP  RH WIND       PRES   REMARKS
FARMINGTON     SUNNY     80  40  23 NW17G28   30.13F
LOS ALAMOS     MOSUNNY   71  40  32 SW5       30.23F
SANTA FE       PTSUNNY   76  40  27 N10       30.15F
ANGEL FIRE     FAIR      64  40  41 W14G22    30.30F

$$
NMZ402-403-502-505>509-282300-
WESTCENTRAL MOUNTAINS/SOUTHWEST MOUNTAINS

CITY           SKY/WX    TMP DP  RH WIND       PRES   REMARKS
GALLUP         SUNNY     79  39  23 NE8G21    30.22F
SILVER CITY    SUNNY     86  36  16 NW8G20    30.14F

$$
NMZ407-409-411-412-282300-
SOUTHERN DESERTS

CITY           SKY/WX    TMP DP  RH WIND       PRES   REMARKS
LORDSBURG      FAIR      90  45  20 W7G20     30.05F
DEMING         MOSUNNY   91  44  19 SW9G18    30.03F
LAS CRUCES     MOSUNNY   89  40  18 NE14G23   30.05F
HOLLOMAN AFB   SUNNY     90  40  17 VRB7      30.01F
ALAMOGORDO     MOSUNNY   90  39  17 NW5       30.03F
T OR C         SUNNY     85  44  23 SE7       30.07F

$$
NMZ519>523-282300-
CENTRAL VALLEYS/CENTRAL HIGHLANDS

CITY           SKY/WX    TMP DP  RH WIND       PRES   REMARKS
ALBUQUERQUE    MOSUNNY   84  40  21 N16G23    30.13F
DOUBLE EAGLE   MOSUNNY   79  43  27 NW18      30.17F
MORIARTY ARPT  FAIR      78  41  26 W12G20    30.18F
CLINES CORNERS MOSUNNY   74  40  29 W25G33    30.19F
BELEN          FAIR      84  41  22 NW9G17    30.11F
SOCORRO        FAIR      85  43  22 E5        30.08F

$$
NMZ524>526-539-540-282300-
SOUTHCENTRAL MOUNTAINS

CITY           SKY/WX    TMP DP  RH WIND       PRES   REMARKS
RUIDOSO        SUNNY     75  41  29 NW20G25   30.23F

$$
NMZ527>531-282300-
NORTHEAST HIGHLANDS/NORTHEAST PLAINS

CITY           SKY/WX    TMP DP  RH WIND       PRES   REMARKS
LAS VEGAS      PTSUNNY   75  39  27 W7        30.17F
RATON          PTSUNNY   68  44  42 NE9       30.14F
CLAYTON        TSTM      60  50  69 NW15G44   30.11R VSB 3/4

$$
NMZ532>537-282300-
EASTCENTRAL PLAINS

CITY           SKY/WX    TMP DP  RH WIND       PRES   REMARKS
TUCUMCARI      SUNNY     92  33  12 W7        29.93F
CANNON AFB     SUNNY     89  43  20 W20G25    29.98F
CLOVIS AIRPORT   N/A     90  41  18 W15       29.99F

$$
NMZ028-029-538-282300-
SOUTHEAST PLAINS

CITY           SKY/WX    TMP DP  RH WIND       PRES   REMARKS
ROSWELL        SUNNY     91  48  22 S15       29.95F
CARLSBAD       MOSUNNY   96  51  21 NE7       29.91F
HOBBS          PTSUNNY   93  48  21 NW7       29.94F


$$


USA.gov is the U.S. government's official web portal to all federal, state and local government web resources and services.